User: anonymous   Login
Location: San Vito
(41.8833°N, 12.9833°E)
Time: 20:21:30
(UTC+00:00)
Language:

NOSS 3-4 (A) - Orbit

View from above orbital plane
View from above orbital plane
View from above satellite
View from above satellite

Ground track
Ground track

The orbit data is extracted from the following two-line orbital elements,

1 31701U 07027A   20019.27111226 0.00000000  00000-0  00000-0 0    05
2 31701  63.3976 190.3673 0270706  20.1563 339.8485 13.40794867    05
Epoch (UTC): 19 January 2020 06:30:24
Eccentricity: 0.0270706
inclination: 63.3976°
perigee height: 904 km
apogee height: 1309 km
right ascension of ascending node: 190.3673°
argument of perigee: 20.1563°
revolutions per day: 13.40794867
mean anomaly at epoch: 339.8485°
orbit number at epoch: 0

The dashed part of the orbit path shows where the satellite is in the earth's shadow,  

DLR